Regional Weather Roundup
Issued by NWS

Home | Current Version | Previous Version | Graphics & Text | Print | Product List | Glossary On
Versions: 1 2 3 4 5 6 7 8 9 10 11 12 13 14 15 16 17 18 19 20 21 22 23 24 25 26 27 28 29 30 31 32 33 34 35 36 37 38 39 40 41 42 43 44 45 46 47 48 49 50
000
ASUS45 KABQ 201801
RWRNM
WEATHER ROUNDUP FOR NEW MEXICO
NATIONAL WEATHER SERVICE ALBUQUERQUE NM
1200 PM MDT SAT SEP 20 2014

NOTE: "FAIR" MEANS FEW OR NO CLOUDS BELOW 12,000 FEET AGL WITH NO
       SIGNIFICANT WEATHER OR OBSTRUCTIONS TO VISION.

      THIS PRODUCT IS RELEASED AS TWO VERSIONS.  ONE VERSION NEAR
      THE TOP OF THE HOUR CONTAINING PRELIMINARY DATA FROM ALBUQUERQUE
      AND OTHER STATIONS.  A FINAL VERSION WITH ADDITIONAL DATA IS
      ISSUED ABOUT 10 MINUTES AFTER THE HOUR.

NMZ501-503-504-510>518-201900-
NORTHWEST PLATEAU/NORTHCENTRAL MOUNTAINS

CITY           SKY/WX    TMP DP  RH WIND       PRES   REMARKS
FARMINGTON     SUNNY     79  50  36 VRB3      30.17F
6HR MIN TEMP:  55; 6HR MAX TEMP:  79;

LOS ALAMOS     SUNNY     76  48  37 E5        30.30S
SANTA FE       SUNNY     79  49  34 N12       30.23S
6HR MIN TEMP:  53; 6HR MAX TEMP:  79;

TAOS           SUNNY     75  45  33 NW5       30.29F
ANGEL FIRE     FAIR      75  31  20 E14       30.39S

$$
NMZ402-403-502-505>509-201900-
WESTCENTRAL MOUNTAINS/SOUTHWEST MOUNTAINS

CITY           SKY/WX    TMP DP  RH WIND       PRES   REMARKS
GALLUP         SUNNY     81  41  24 VRB5      30.23F
6HR MIN TEMP:  43; 6HR MAX TEMP:  81;

GRANTS         SUNNY     81  43  26 CALM      30.26S
SILVER CITY    MOSUNNY   77  63  61 SW3       30.18S

$$
NMZ407-409-411-412-201900-
SOUTHERN DESERTS

CITY           SKY/WX    TMP DP  RH WIND       PRES   REMARKS
LORDSBURG      FAIR      77  63  61 MISG      30.10S
DEMING         SUNNY     80  64  58 VRB5      30.10S
6HR MIN TEMP:  62; 6HR MAX TEMP:  80;

LAS CRUCES     MOSUNNY   79  63  57 S3        30.12S
HOLLOMAN AFB   MOSUNNY   80  66  61 CALM      30.08F
ALAMOGORDO     MOSUNNY   77  66  69 S5        30.10F
T OR C         SUNNY     78  62  57 E6        30.13F
6HR MIN TEMP:  63; 6HR MAX TEMP:  78;


$$
NMZ519>523-201900-
CENTRAL VALLEYS/CENTRAL HIGHLANDS

CITY           SKY/WX    TMP DP  RH WIND       PRES   REMARKS
ALBUQUERQUE    MOSUNNY   78  57  48 NW8       30.17F
6HR MIN TEMP:  63; 6HR MAX TEMP:  78;

DOUBLE EAGLE   MOSUNNY   75  57  53 VRB3      30.21F
CLINES CORNERS SUNNY     77  46  33 E14G23    30.27R
6HR MIN TEMP:  50; 6HR MAX TEMP:  78;

BELEN          FAIR      78  58  50 S5        30.16F
6HR MIN TEMP:  57; 6HR MAX TEMP:  78;

SOCORRO        FAIR      77  62  60 CALM      30.16S
6HR MIN TEMP:  60; 6HR MAX TEMP:  77;


$$
NMZ524>526-539-540-201900-
SOUTHCENTRAL MOUNTAINS

CITY           SKY/WX    TMP DP  RH WIND       PRES   REMARKS
RUIDOSO        NOT AVBL

$$
NMZ527>531-201900-
NORTHEAST HIGHLANDS/NORTHEAST PLAINS

CITY           SKY/WX    TMP DP  RH WIND       PRES   REMARKS
LAS VEGAS      SUNNY     79  40  24 NE20G28   30.28S
6HR MIN TEMP:  52; 6HR MAX TEMP:  80;

RATON          SUNNY     83  41  22 NE13G26   30.24S
6HR MIN TEMP:  53; 6HR MAX TEMP:  83;

CLAYTON        SUNNY     81  55  40 NE16      30.16R
6HR MIN TEMP:  60; 6HR MAX TEMP:  82;


$$
NMZ532>537-201900-
EASTCENTRAL PLAINS

CITY           SKY/WX    TMP DP  RH WIND       PRES   REMARKS
TUCUMCARI      MOSUNNY   82  61  48 E5        30.09F
6HR MIN TEMP:  63; 6HR MAX TEMP:  82;

CANNON AFB     NOT AVBL
CLOVIS AIRPORT   N/A     72  63  73 E9        30.16F

$$
NMZ028-029-538-201900-
SOUTHEAST PLAINS

CITY           SKY/WX    TMP DP  RH WIND       PRES   REMARKS
ROSWELL        PTSUNNY   77  65  66 W3        30.10F
6HR MIN TEMP:  68; 6HR MAX TEMP:  77;

CARLSBAD       CLOUDY    76  74  93 N8        30.07S
6HR MIN TEMP:  70; 6HR MAX TEMP:  78;

HOBBS          PTSUNNY   75  70  83 NE7       30.10S


$$



USA.gov is the U.S. government's official web portal to all federal, state and local government web resources and services.